Time,TemperatureF,DewpointF,PressureIn,WindDirection,WindDirectionDegrees,WindSpeedMPH,WindSpeedGustMPH,Humidity,HourlyPrecipIn,Conditions,Clouds,dailyrainin,SoftwareType,DateUTC
2013-04-03 00:00:00,50.2,45.2,29.95,ESE,119,7.0,31.0,83,0.00,,---,0.00,VWS V14.00,2013-04-03 06:00:00,
2013-04-03 00:05:00,50.2,45.2,29.96,East,90,16.0,20.0,83,0.00,,---,0.00,VWS V14.00,2013-04-03 06:05:00,
2013-04-03 00:10:00,50.3,45.3,29.97,East,101,13.0,21.0,83,0.00,,---,0.00,VWS V14.00,2013-04-03 06:10:00,
2013-04-03 00:15:00,50.6,45.6,29.97,ENE,57,10.0,21.0,83,0.00,,---,0.00,VWS V14.00,2013-04-03 06:15:00,
2013-04-03 00:20:00,50.7,45.4,29.97,ESE,121,14.0,21.0,82,0.00,,---,0.00,VWS V14.00,2013-04-03 06:20:00,
2013-04-03 00:25:00,50.9,45.6,29.96,East,96,17.0,21.0,82,0.00,,---,0.00,VWS V14.00,2013-04-03 06:25:00,
2013-04-03 00:30:00,51.1,45.8,29.95,ESE,106,7.0,21.0,82,0.00,,---,0.00,VWS V14.00,2013-04-03 06:30:00,
2013-04-03 00:35:00,51.2,45.9,29.96,East,87,13.0,23.0,82,0.00,,---,0.00,VWS V14.00,2013-04-03 06:35:00,
2013-04-03 00:40:00,51.4,45.8,29.95,East,88,12.0,26.0,81,0.00,,---,0.00,VWS V14.00,2013-04-03 06:40:00,
2013-04-03 00:45:00,51.4,46.1,29.96,ESE,105,20.0,26.0,82,0.00,,---,0.00,VWS V14.00,2013-04-03 06:45:00,
2013-04-03 00:50:00,51.6,46.0,29.96,ESE,116,18.0,26.0,81,0.00,,---,0.00,VWS V14.00,2013-04-03 06:50:00,
2013-04-03 00:55:00,51.6,46.0,29.97,East,98,12.0,26.0,81,0.00,,---,0.00,VWS V14.00,2013-04-03 06:55:00,
2013-04-03 01:00:00,51.7,46.1,29.98,East,94,15.0,26.0,81,0.00,,---,0.00,VWS V14.00,2013-04-03 07:00:00,
2013-04-03 01:05:00,51.8,46.2,29.99,ENE,65,13.0,16.0,81,0.00,,---,0.00,VWS V14.00,2013-04-03 07:05:00,
2013-04-03 01:10:00,52.0,46.4,30.01,ESE,105,7.0,16.0,81,0.00,,---,0.00,VWS V14.00,2013-04-03 07:10:00,
2013-04-03 01:15:00,51.7,46.1,30.00,East,84,9.0,16.0,81,0.00,,---,0.00,VWS V14.00,2013-04-03 07:15:00,
2013-04-03 01:20:00,51.4,46.1,30.00,NNE,13,10.0,16.0,82,0.00,,---,0.00,VWS V14.00,2013-04-03 07:20:00,
2013-04-03 01:25:00,51.3,46.0,30.00,NNE,19,12.0,18.0,82,0.00,,---,0.00,VWS V14.00,2013-04-03 07:25:00,
2013-04-03 01:30:00,51.1,46.1,30.00,NNE,28,7.0,19.0,83,0.00,,---,0.00,VWS V14.00,2013-04-03 07:30:00,
2013-04-03 01:35:00,50.9,46.2,30.00,ENE,74,12.0,24.0,84,0.00,,---,0.00,VWS V14.00,2013-04-03 07:35:00,
2013-04-03 01:40:00,51.0,46.3,30.01,NNE,28,8.0,24.0,84,0.00,,---,0.00,VWS V14.00,2013-04-03 07:40:00,
2013-04-03 01:45:00,51.0,46.3,30.01,North,360,2.0,24.0,84,0.00,,---,0.00,VWS V14.00,2013-04-03 07:45:00,
2013-04-03 01:50:00,51.1,46.4,30.01,North,5,5.0,24.0,84,0.00,,---,0.00,VWS V14.00,2013-04-03 07:50:00,
2013-04-03 01:55:00,51.2,46.5,30.01,North,5,8.0,24.0,84,0.00,,---,0.00,VWS V14.00,2013-04-03 07:55:00,
2013-04-03 02:00:00,51.4,46.7,30.02,NNE,28,7.0,24.0,84,0.00,,---,0.00,VWS V14.00,2013-04-03 08:00:00,
2013-04-03 02:05:00,51.4,46.7,30.02,NNW,339,13.0,14.0,84,0.00,,---,0.00,VWS V14.00,2013-04-03 08:05:00,
2013-04-03 02:10:00,50.9,46.2,30.02,NNW,348,15.0,17.0,84,0.00,,---,0.00,VWS V14.00,2013-04-03 08:10:00,
2013-04-03 02:14:00,50.2,45.9,30.02,East,88,14.0,19.0,85,0.00,,---,0.00,VWS V14.00,2013-04-03 08:14:00,
2013-04-03 02:19:00,49.4,45.4,30.02,North,11,10.0,22.0,86,0.00,,---,0.00,VWS V14.00,2013-04-03 08:19:00,
2013-04-03 02:24:00,48.9,45.2,30.02,North,11,11.0,22.0,87,0.00,,---,0.01,VWS V14.00,2013-04-03 08:24:00,
2013-04-03 02:29:00,48.6,45.2,30.02,NNE,13,11.0,22.0,88,0.00,,---,0.01,VWS V14.00,2013-04-03 08:29:00,
2013-04-03 02:30:00,48.5,45.1,30.02,NNW,339,5.0,22.0,88,0.09,,---,0.02,VWS V14.00,2013-04-03 08:30:00,
2013-04-03 02:34:00,48.4,45.0,30.02,NNE,21,13.0,17.0,88,0.09,,---,0.02,VWS V14.00,2013-04-03 08:34:00,
2013-04-03 02:39:00,48.1,45.0,30.02,NNW,346,11.0,18.0,89,0.07,,---,0.02,VWS V14.00,2013-04-03 08:39:00,
2013-04-03 02:44:00,47.9,45.1,30.02,NNE,31,16.0,18.0,90,0.06,,---,0.03,VWS V14.00,2013-04-03 08:44:00,
2013-04-03 02:49:00,47.8,45.0,30.02,NNW,327,9.0,18.0,90,0.06,,---,0.03,VWS V14.00,2013-04-03 08:49:00,
2013-04-03 02:54:00,47.6,44.8,30.03,North,350,3.0,18.0,90,0.05,,---,0.03,VWS V14.00,2013-04-03 08:54:00,
2013-04-03 02:59:00,47.6,45.1,30.04,North,355,3.0,18.0,91,0.00,,---,0.03,VWS V14.00,2013-04-03 08:59:00,
2013-04-03 03:00:00,47.6,45.1,30.04,NNE,13,12.0,18.0,91,0.00,,---,0.03,VWS V14.00,2013-04-03 09:00:00,
2013-04-03 03:05:00,47.5,45.0,30.05,NNE,24,10.0,16.0,91,0.00,,---,0.03,VWS V14.00,2013-04-03 09:05:00,
2013-04-03 03:10:00,47.5,45.0,30.05,NNE,12,10.0,16.0,91,0.00,,---,0.03,VWS V14.00,2013-04-03 09:10:00,
2013-04-03 03:15:00,47.6,45.1,30.05,NNE,15,6.0,16.0,91,0.00,,---,0.03,VWS V14.00,2013-04-03 09:15:00,
2013-04-03 03:20:00,47.6,45.4,30.05,NE,38,6.0,16.0,92,0.00,,---,0.03,VWS V14.00,2013-04-03 09:20:00,
2013-04-03 03:25:00,47.6,45.4,30.05,North,5,4.0,16.0,92,0.00,,---,0.03,VWS V14.00,2013-04-03 09:25:00,
2013-04-03 03:30:00,47.7,45.5,30.05,NNE,13,8.0,16.0,92,0.00,,---,0.03,VWS V14.00,2013-04-03 09:30:00,
2013-04-03 03:35:00,47.7,45.5,30.05,NE,40,8.0,13.0,92,0.00,,---,0.03,VWS V14.00,2013-04-03 09:35:00,
2013-04-03 03:40:00,47.6,45.4,30.06,East,98,7.0,16.0,92,0.00,,---,0.03,VWS V14.00,2013-04-03 09:40:00,
2013-04-03 03:45:00,47.3,45.1,30.05,NE,38,9.0,16.0,92,0.00,,---,0.03,VWS V14.00,2013-04-03 09:45:00,
2013-04-03 03:50:00,47.0,44.8,30.05,NNE,25,12.0,18.0,92,0.00,,---,0.04,VWS V14.00,2013-04-03 09:50:00,
2013-04-03 03:55:00,46.9,44.7,30.05,East,87,6.0,18.0,92,0.00,,---,0.04,VWS V14.00,2013-04-03 09:55:00,
2013-04-03 04:00:00,46.8,44.6,30.05,NE,40,10.0,19.0,92,0.00,,---,0.04,VWS V14.00,2013-04-03 10:00:00,
2013-04-03 04:05:00,46.8,44.6,30.05,NE,56,14.0,14.0,92,0.05,,---,0.05,VWS V14.00,2013-04-03 10:05:00,
2013-04-03 04:10:00,46.7,44.5,30.05,ENE,57,11.0,15.0,92,0.10,,---,0.06,VWS V14.00,2013-04-03 10:10:00,
2013-04-03 04:14:00,46.6,44.4,30.05,NNE,17,6.0,15.0,92,0.14,,---,0.07,VWS V14.00,2013-04-03 10:14:00,
2013-04-03 04:19:00,46.7,44.5,30.05,ENE,62,11.0,15.0,92,0.11,,---,0.08,VWS V14.00,2013-04-03 10:19:00,
2013-04-03 04:24:00,46.6,44.4,30.04,ENE,66,9.0,15.0,92,0.09,,---,0.09,VWS V14.00,2013-04-03 10:24:00,
2013-04-03 04:29:00,46.5,44.3,30.04,ENE,70,6.0,15.0,92,0.09,,---,0.10,VWS V14.00,2013-04-03 10:29:00,
2013-04-03 04:30:00,46.5,44.3,30.04,East,94,7.0,15.0,92,0.09,,---,0.10,VWS V14.00,2013-04-03 10:30:00,
2013-04-03 04:34:00,46.5,44.3,30.04,East,88,7.0,12.0,92,0.09,,---,0.10,VWS V14.00,2013-04-03 10:34:00,
2013-04-03 04:39:00,46.4,44.2,30.04,East,81,12.0,13.0,92,0.09,,---,0.11,VWS V14.00,2013-04-03 10:39:00,
2013-04-03 04:44:00,46.4,44.2,30.04,ENE,78,13.0,13.0,92,0.08,,---,0.11,VWS V14.00,2013-04-03 10:44:00,
2013-04-03 04:49:00,46.3,44.1,30.03,ENE,68,10.0,13.0,92,0.05,,---,0.11,VWS V14.00,2013-04-03 10:49:00,
2013-04-03 04:54:00,46.3,44.4,30.03,ENE,68,10.0,13.0,93,0.04,,---,0.12,VWS V14.00,2013-04-03 10:54:00,
2013-04-03 04:59:00,46.2,44.3,30.03,East,79,16.0,16.0,93,0.04,,---,0.12,VWS V14.00,2013-04-03 10:59:00,
2013-04-03 05:00:00,46.2,44.3,30.03,ENE,70,12.0,16.0,93,0.04,,---,0.12,VWS V14.00,2013-04-03 11:00:00,
2013-04-03 05:04:00,46.0,44.1,30.03,ENE,73,12.0,18.0,93,0.05,,---,0.13,VWS V14.00,2013-04-03 11:04:00,
2013-04-03 05:09:00,45.9,44.0,30.02,East,91,14.0,18.0,93,0.05,,---,0.13,VWS V14.00,2013-04-03 11:09:00,
2013-04-03 05:14:00,45.9,44.0,30.01,East,88,14.0,19.0,93,0.06,,---,0.14,VWS V14.00,2013-04-03 11:14:00,
2013-04-03 05:19:00,46.0,44.1,30.01,East,84,21.0,22.0,93,0.10,,---,0.15,VWS V14.00,2013-04-03 11:19:00,
2013-04-03 05:24:00,45.7,43.5,29.99,ENE,74,18.0,29.0,92,0.09,,---,0.16,VWS V14.00,2013-04-03 11:24:00,
2013-04-03 05:29:00,45.4,43.5,29.96,ESE,102,17.0,29.0,93,0.18,,---,0.17,VWS V14.00,2013-04-03 11:29:00,
2013-04-03 05:30:00,45.5,43.6,29.97,ENE,78,20.0,29.0,93,0.19,,---,0.17,VWS V14.00,2013-04-03 11:30:00,
2013-04-03 05:34:00,45.4,43.5,29.98,ENE,76,18.0,25.0,93,0.19,,---,0.18,VWS V14.00,2013-04-03 11:34:00,
2013-04-03 05:39:00,45.2,43.3,29.99,ENE,65,13.0,27.0,93,0.14,,---,0.19,VWS V14.00,2013-04-03 11:39:00,
2013-04-03 05:44:00,45.2,43.3,29.99,ENE,65,17.0,27.0,93,0.06,,---,0.19,VWS V14.00,2013-04-03 11:44:00,
2013-04-03 05:49:00,45.1,43.2,29.99,East,85,18.0,27.0,93,0.04,,---,0.19,VWS V14.00,2013-04-03 11:49:00,
2013-04-03 05:54:00,45.1,43.2,29.98,ENE,71,19.0,27.0,93,0.00,,---,0.19,VWS V14.00,2013-04-03 11:54:00,
2013-04-03 05:59:00,45.1,43.2,29.99,East,84,16.0,27.0,93,0.00,,---,0.19,VWS V14.00,2013-04-03 11:59:00,
2013-04-03 06:00:00,45.1,43.2,29.99,East,80,14.0,27.0,93,0.00,,---,0.19,VWS V14.00,2013-04-03 12:00:00,
2013-04-03 06:04:00,45.2,43.3,29.99,East,86,10.0,22.0,93,0.00,,---,0.19,VWS V14.00,2013-04-03 12:04:00,
2013-04-03 06:09:00,45.3,43.4,30.00,NE,47,12.0,22.0,93,0.00,,---,0.19,VWS V14.00,2013-04-03 12:09:00,
2013-04-03 06:14:00,45.4,43.5,30.01,NE,43,19.0,22.0,93,0.00,,---,0.19,VWS V14.00,2013-04-03 12:14:00,
2013-04-03 06:19:00,45.3,43.4,30.01,ENE,62,11.0,22.0,93,0.00,,---,0.20,VWS V14.00,2013-04-03 12:19:00,
2013-04-03 06:24:00,45.2,43.3,30.02,NE,38,15.0,22.0,93,0.00,,---,0.20,VWS V14.00,2013-04-03 12:24:00,
2013-04-03 06:29:00,45.2,43.3,30.02,NE,46,15.0,22.0,93,0.00,,---,0.20,VWS V14.00,2013-04-03 12:29:00,
2013-04-03 06:30:00,45.1,43.2,30.02,ESE,107,9.0,22.0,93,0.00,,---,0.20,VWS V14.00,2013-04-03 12:30:00,
2013-04-03 06:34:00,44.8,42.9,30.02,NE,51,16.0,23.0,93,0.00,,---,0.20,VWS V14.00,2013-04-03 12:34:00,
2013-04-03 06:39:00,44.4,42.5,30.03,ENE,66,14.0,29.0,93,0.00,,---,0.20,VWS V14.00,2013-04-03 12:39:00,
2013-04-03 06:44:00,44.2,42.3,30.04,NNE,25,15.0,29.0,93,0.00,,---,0.20,VWS V14.00,2013-04-03 12:44:00,
2013-04-03 06:49:00,44.1,42.2,30.04,ENE,69,20.0,29.0,93,0.00,,---,0.20,VWS V14.00,2013-04-03 12:49:00,
2013-04-03 06:54:00,44.1,42.2,30.05,NE,48,15.0,29.0,93,0.00,,---,0.20,VWS V14.00,2013-04-03 12:54:00,
2013-04-03 06:59:00,44.2,42.3,30.06,NE,55,24.0,29.0,93,0.00,,---,0.20,VWS V14.00,2013-04-03 12:59:00,
2013-04-03 07:00:00,44.2,42.3,30.05,East,91,14.0,29.0,93,0.00,,---,0.20,VWS V14.00,2013-04-03 13:00:00,
2013-04-03 07:04:00,44.2,42.3,30.06,NE,39,13.0,21.0,93,0.00,,---,0.20,VWS V14.00,2013-04-03 13:04:00,
2013-04-03 07:09:00,44.3,42.4,30.07,East,94,10.0,21.0,93,0.00,,---,0.20,VWS V14.00,2013-04-03 13:09:00,
2013-04-03 07:14:00,44.4,42.5,30.07,ENE,60,12.0,21.0,93,0.00,,---,0.20,VWS V14.00,2013-04-03 13:14:00,
2013-04-03 07:19:00,44.6,42.7,30.07,ESE,108,10.0,21.0,93,0.00,,---,0.20,VWS V14.00,2013-04-03 13:19:00,
2013-04-03 07:24:00,44.7,42.8,30.08,NNE,17,14.0,21.0,93,0.00,,---,0.20,VWS V14.00,2013-04-03 13:24:00,
2013-04-03 07:29:00,44.6,42.7,30.07,NE,51,12.0,21.0,93,0.00,,---,0.20,VWS V14.00,2013-04-03 13:29:00,
2013-04-03 07:30:00,44.6,42.7,30.07,NE,36,13.0,21.0,93,0.00,,---,0.20,VWS V14.00,2013-04-03 13:30:00,
2013-04-03 07:34:00,44.5,42.6,30.08,NE,41,10.0,19.0,93,0.00,,---,0.20,VWS V14.00,2013-04-03 13:34:00,
2013-04-03 07:39:00,44.4,42.5,30.08,NE,36,15.0,19.0,93,0.00,,---,0.20,VWS V14.00,2013-04-03 13:39:00,
2013-04-03 07:44:00,44.4,42.5,30.07,NE,43,15.0,20.0,93,0.00,,---,0.20,VWS V14.00,2013-04-03 13:44:00,
2013-04-03 07:49:00,44.3,42.4,30.08,East,89,6.0,20.0,93,0.00,,---,0.20,VWS V14.00,2013-04-03 13:49:00,
2013-04-03 07:54:00,44.3,42.4,30.08,NE,52,17.0,26.0,93,0.00,,---,0.20,VWS V14.00,2013-04-03 13:54:00,
2013-04-03 07:59:00,44.2,42.3,30.08,NE,34,17.0,26.0,93,0.00,,---,0.20,VWS V14.00,2013-04-03 13:59:00,
2013-04-03 08:00:00,44.2,42.3,30.08,ENE,63,21.0,26.0,93,0.00,,---,0.20,VWS V14.00,2013-04-03 14:00:00,
2013-04-03 08:04:00,44.1,42.2,30.08,NE,41,18.0,20.0,93,0.00,,---,0.20,VWS V14.00,2013-04-03 14:04:00,
2013-04-03 08:09:00,44.3,42.4,30.08,ENE,59,13.0,22.0,93,0.00,,---,0.20,VWS V14.00,2013-04-03 14:09:00,
2013-04-03 08:21:00,44.3,42.4,30.08,NE,55,14.0,14.0,93,0.00,,---,0.20,VWS V14.00,2013-04-03 14:21:00,
2013-04-03 08:26:00,44.5,42.6,30.09,NE,50,7.0,15.0,93,0.00,,---,0.20,VWS V14.00,2013-04-03 14:26:00,
2013-04-03 08:30:00,44.5,42.3,30.09,ENE,63,13.0,20.0,92,0.00,,---,0.20,VWS V14.00,2013-04-03 14:30:00,
2013-04-03 08:31:00,44.5,42.3,30.09,NE,55,10.0,12.0,92,0.00,,---,0.20,VWS V14.00,2013-04-03 14:31:00,
2013-04-03 08:36:00,44.4,42.2,30.09,ENE,64,15.0,20.0,92,0.00,,---,0.20,VWS V14.00,2013-04-03 14:36:00,
2013-04-03 08:41:00,44.3,42.1,30.08,ENE,59,20.0,22.0,92,0.00,,---,0.20,VWS V14.00,2013-04-03 14:41:00,
2013-04-03 08:47:00,44.4,42.5,30.09,ENE,72,11.0,22.0,93,0.00,,---,0.20,VWS V14.00,2013-04-03 14:47:00,
2013-04-03 08:52:00,44.4,42.2,30.09,ENE,66,13.0,22.0,92,0.00,,---,0.20,VWS V14.00,2013-04-03 14:52:00,
2013-04-03 08:57:00,44.5,42.3,30.08,East,81,19.0,22.0,92,0.00,,---,0.20,VWS V14.00,2013-04-03 14:57:00,
2013-04-03 09:00:00,44.5,42.3,30.09,NE,43,14.0,23.0,92,0.00,,---,0.20,VWS V14.00,2013-04-03 15:00:00,
2013-04-03 09:01:00,44.5,42.3,30.09,ENE,74,13.0,20.0,92,0.00,,---,0.20,VWS V14.00,2013-04-03 15:01:00,
2013-04-03 09:06:00,44.4,42.2,30.08,ENE,58,12.0,22.0,92,0.00,,---,0.20,VWS V14.00,2013-04-03 15:06:00,
2013-04-03 09:12:00,44.5,42.3,30.08,NE,52,19.0,22.0,92,0.00,,---,0.20,VWS V14.00,2013-04-03 15:12:00,
2013-04-03 09:17:00,44.5,42.3,30.09,East,82,15.0,23.0,92,0.00,,---,0.20,VWS V14.00,2013-04-03 15:17:00,
2013-04-03 09:22:00,44.7,42.5,30.09,NE,55,13.0,23.0,92,0.00,,---,0.20,VWS V14.00,2013-04-03 15:22:00,
2013-04-03 09:27:00,44.7,42.5,30.09,ENE,75,13.0,23.0,92,0.00,,---,0.20,VWS V14.00,2013-04-03 15:27:00,
2013-04-03 09:30:00,44.7,42.5,30.10,NE,50,10.0,23.0,92,0.00,,---,0.20,VWS V14.00,2013-04-03 15:30:00,
2013-04-03 09:32:00,44.8,42.6,30.10,ESE,108,7.0,11.0,92,0.00,,---,0.20,VWS V14.00,2013-04-03 15:32:00,
2013-04-03 09:37:00,44.8,42.6,30.10,NE,46,17.0,20.0,92,0.00,,---,0.20,VWS V14.00,2013-04-03 15:37:00,
2013-04-03 09:42:00,44.8,42.6,30.09,NE,53,12.0,21.0,92,0.00,,---,0.20,VWS V14.00,2013-04-03 15:42:00,
2013-04-03 09:47:00,44.9,42.7,30.09,ENE,76,15.0,21.0,92,0.00,,---,0.20,VWS V14.00,2013-04-03 15:47:00,
2013-04-03 10:06:00,45.4,42.9,30.10,ENE,74,9.0,13.0,91,0.00,,---,0.20,VWS V14.00,2013-04-03 16:06:00,
2013-04-03 10:11:00,45.8,43.3,30.10,ENE,64,14.0,15.0,91,0.00,,---,0.20,VWS V14.00,2013-04-03 16:11:00,
2013-04-03 10:16:00,45.7,42.9,30.09,ENE,71,12.0,20.0,90,0.00,,---,0.20,VWS V14.00,2013-04-03 16:16:00,
2013-04-03 10:21:00,46.0,43.5,30.09,NE,52,12.0,20.0,91,0.00,,---,0.20,VWS V14.00,2013-04-03 16:21:00,
2013-04-03 10:26:00,45.9,43.1,30.10,NE,36,9.0,20.0,90,0.00,,---,0.20,VWS V14.00,2013-04-03 16:26:00,
2013-04-03 10:31:00,45.9,43.4,30.10,NE,51,6.0,20.0,91,0.00,,---,0.20,VWS V14.00,2013-04-03 16:31:00,
2013-04-03 10:36:00,46.0,43.5,30.10,ENE,57,11.0,15.0,91,0.00,,---,0.20,VWS V14.00,2013-04-03 16:36:00,
2013-04-03 10:41:00,45.9,43.1,30.11,NNE,23,4.0,15.0,90,0.00,,---,0.20,VWS V14.00,2013-04-03 16:41:00,
2013-04-03 10:46:00,45.7,42.9,30.11,NE,47,10.0,15.0,90,0.00,,---,0.20,VWS V14.00,2013-04-03 16:46:00,
2013-04-03 10:51:00,45.5,42.7,30.11,NNE,23,6.0,15.0,90,0.00,,---,0.20,VWS V14.00,2013-04-03 16:51:00,
2013-04-03 10:56:00,45.5,42.7,30.11,NE,36,9.0,15.0,90,0.00,,---,0.20,VWS V14.00,2013-04-03 16:56:00,
2013-04-03 11:01:00,45.5,42.7,30.11,ENE,67,9.0,15.0,90,0.00,,---,0.20,VWS V14.00,2013-04-03 17:01:00,
2013-04-03 11:06:00,45.5,42.7,30.11,ENE,67,11.0,13.0,90,0.00,,---,0.20,VWS V14.00,2013-04-03 17:06:00,
2013-04-03 11:11:00,45.7,42.9,30.11,ENE,59,11.0,14.0,90,0.00,,---,0.20,VWS V14.00,2013-04-03 17:11:00,
2013-04-03 11:16:00,45.7,42.9,30.11,ENE,65,10.0,14.0,90,0.00,,---,0.20,VWS V14.00,2013-04-03 17:16:00,
2013-04-03 11:21:00,45.8,43.0,30.11,East,87,4.0,14.0,90,0.00,,---,0.20,VWS V14.00,2013-04-03 17:21:00,
2013-04-03 11:26:00,46.1,43.3,30.12,NE,40,5.0,14.0,90,0.00,,---,0.20,VWS V14.00,2013-04-03 17:26:00,
2013-04-03 11:31:00,46.2,43.1,30.11,NE,40,5.0,14.0,89,0.00,,---,0.20,VWS V14.00,2013-04-03 17:31:00,
2013-04-03 11:36:00,46.3,43.2,30.11,NE,51,13.0,14.0,89,0.00,,---,0.20,VWS V14.00,2013-04-03 17:36:00,
2013-04-03 11:41:00,46.2,43.1,30.11,NE,45,9.0,14.0,89,0.00,,---,0.20,VWS V14.00,2013-04-03 17:41:00,
2013-04-03 11:46:00,46.1,42.8,30.10,NE,43,7.0,14.0,88,0.00,,---,0.20,VWS V14.00,2013-04-03 17:46:00,
2013-04-03 11:51:00,46.2,43.1,30.10,NE,43,5.0,14.0,89,0.00,,---,0.20,VWS V14.00,2013-04-03 17:51:00,
2013-04-03 11:56:00,46.3,43.2,30.10,ENE,66,5.0,14.0,89,0.00,,---,0.20,VWS V14.00,2013-04-03 17:56:00,
2013-04-03 12:01:00,46.6,43.2,30.11,NNE,13,3.0,14.0,88,0.00,,---,0.20,VWS V14.00,2013-04-03 18:01:00,
2013-04-03 12:06:00,46.7,43.3,30.11,NE,34,4.0,12.0,88,0.00,,---,0.20,VWS V14.00,2013-04-03 18:06:00,
2013-04-03 12:11:00,46.7,43.3,30.11,NNE,23,11.0,12.0,88,0.00,,---,0.20,VWS V14.00,2013-04-03 18:11:00,
2013-04-03 12:16:00,46.8,43.1,30.11,NE,38,9.0,13.0,87,0.00,,---,0.20,VWS V14.00,2013-04-03 18:16:00,
2013-04-03 12:21:00,46.9,43.2,30.11,ENE,61,4.0,13.0,87,0.00,,---,0.20,VWS V14.00,2013-04-03 18:21:00,
2013-04-03 12:26:00,47.0,43.3,30.10,SE,124,3.0,14.0,87,0.00,,---,0.20,VWS V14.00,2013-04-03 18:26:00,
2013-04-03 12:31:00,47.1,43.4,30.10,NE,35,4.0,9.0,87,0.00,,---,0.20,VWS V14.00,2013-04-03 18:31:00,
2013-04-03 12:36:00,47.1,43.4,30.10,NNE,31,12.0,16.0,87,0.00,,---,0.20,VWS V14.00,2013-04-03 18:36:00,
2013-04-03 12:41:00,47.1,43.1,30.10,NE,40,6.0,16.0,86,0.00,,---,0.20,VWS V14.00,2013-04-03 18:41:00,
2013-04-03 12:46:00,47.2,43.2,30.10,ENE,70,5.0,16.0,86,0.00,,---,0.20,VWS V14.00,2013-04-03 18:46:00,
2013-04-03 12:51:00,47.5,43.5,30.10,ENE,68,10.0,16.0,86,0.00,,---,0.20,VWS V14.00,2013-04-03 18:51:00,
2013-04-03 12:56:00,47.5,43.5,30.10,NNE,16,5.0,16.0,86,0.00,,---,0.20,VWS V14.00,2013-04-03 18:56:00,
2013-04-03 13:02:00,47.6,43.3,30.10,NE,34,9.0,12.0,85,0.00,,---,0.20,VWS V14.00,2013-04-03 19:02:00,
2013-04-03 13:07:00,47.6,43.3,30.10,NE,37,8.0,13.0,85,0.00,,---,0.20,VWS V14.00,2013-04-03 19:07:00,
2013-04-03 13:12:00,47.8,43.5,30.10,ENE,68,5.0,13.0,85,0.00,,---,0.20,VWS V14.00,2013-04-03 19:12:00,
2013-04-03 13:17:00,47.9,43.6,30.10,NE,36,9.0,13.0,85,0.00,,---,0.20,VWS V14.00,2013-04-03 19:17:00,
2013-04-03 13:22:00,48.2,43.9,30.10,NE,37,11.0,13.0,85,0.00,,---,0.20,VWS V14.00,2013-04-03 19:22:00,
2013-04-03 13:27:00,48.1,43.5,30.10,ENE,59,6.0,14.0,84,0.00,,---,0.20,VWS V14.00,2013-04-03 19:27:00,
2013-04-03 13:32:00,48.1,43.5,30.10,NE,51,4.0,10.0,84,0.00,,---,0.20,VWS V14.00,2013-04-03 19:32:00,
2013-04-03 13:37:00,48.3,43.7,30.10,NE,49,12.0,14.0,84,0.00,,---,0.20,VWS V14.00,2013-04-03 19:37:00,
2013-04-03 13:42:00,48.5,43.9,30.10,NE,36,4.0,16.0,84,0.00,,---,0.20,VWS V14.00,2013-04-03 19:42:00,
2013-04-03 13:47:00,48.7,43.8,30.09,ENE,63,10.0,16.0,83,0.00,,---,0.20,VWS V14.00,2013-04-03 19:47:00,
2013-04-03 13:52:00,48.7,43.8,30.09,ENE,63,14.0,19.0,83,0.00,,---,0.20,VWS V14.00,2013-04-03 19:52:00,
2013-04-03 13:57:00,49.0,44.1,30.08,NE,55,15.0,19.0,83,0.00,,---,0.20,VWS V14.00,2013-04-03 19:57:00,
2013-04-03 14:02:00,49.0,44.1,30.08,NE,49,13.0,16.0,83,0.00,,---,0.20,VWS V14.00,2013-04-03 20:02:00,
2013-04-03 14:07:00,49.1,44.2,30.08,ENE,76,11.0,17.0,83,0.00,,---,0.20,VWS V14.00,2013-04-03 20:07:00,
2013-04-03 14:12:00,49.2,44.0,30.08,ENE,62,13.0,18.0,82,0.00,,---,0.20,VWS V14.00,2013-04-03 20:12:00,
2013-04-03 14:17:00,49.4,44.1,30.07,ENE,68,15.0,18.0,82,0.00,,---,0.20,VWS V14.00,2013-04-03 20:17:00,
2013-04-03 14:22:00,49.6,44.3,30.07,ENE,62,14.0,18.0,82,0.00,,---,0.20,VWS V14.00,2013-04-03 20:22:00,
2013-04-03 14:27:00,49.7,44.4,30.07,East,80,17.0,20.0,82,0.00,,---,0.20,VWS V14.00,2013-04-03 20:27:00,
2013-04-03 14:32:00,49.9,44.3,30.07,ENE,71,17.0,18.0,81,0.00,,---,0.20,VWS V14.00,2013-04-03 20:32:00,
2013-04-03 14:37:00,49.9,44.3,30.07,ENE,57,17.0,19.0,81,0.00,,---,0.20,VWS V14.00,2013-04-03 20:37:00,
2013-04-03 14:42:00,50.2,44.9,30.07,ENE,65,10.0,19.0,82,0.00,,---,0.20,VWS V14.00,2013-04-03 20:42:00,
2013-04-03 14:47:00,50.2,44.3,30.07,NE,49,13.0,19.0,80,0.00,,---,0.20,VWS V14.00,2013-04-03 20:47:00,
2013-04-03 14:52:00,50.2,44.3,30.07,ENE,70,17.0,19.0,80,0.00,,---,0.20,VWS V14.00,2013-04-03 20:52:00,
2013-04-03 14:57:00,50.3,44.7,30.07,ENE,65,12.0,19.0,81,0.00,,---,0.20,VWS V14.00,2013-04-03 20:57:00,
2013-04-03 15:02:00,50.4,44.5,30.08,ENE,61,12.0,16.0,80,0.00,,---,0.20,VWS V14.00,2013-04-03 21:02:00,
2013-04-03 15:07:00,50.4,44.1,30.07,NE,47,11.0,17.0,79,0.00,,---,0.20,VWS V14.00,2013-04-03 21:07:00,
2013-04-03 15:12:00,50.5,44.6,30.08,NE,41,15.0,17.0,80,0.00,,---,0.20,VWS V14.00,2013-04-03 21:12:00,
2013-04-03 15:17:00,50.4,44.1,30.08,NE,39,14.0,17.0,79,0.00,,---,0.20,VWS V14.00,2013-04-03 21:17:00,
2013-04-03 15:22:00,50.5,44.2,30.07,NE,44,8.0,17.0,79,0.00,,---,0.20,VWS V14.00,2013-04-03 21:22:00,
2013-04-03 15:27:00,50.8,44.5,30.08,NE,39,9.0,17.0,79,0.00,,---,0.20,VWS V14.00,2013-04-03 21:27:00,
2013-04-03 15:32:00,50.9,44.6,30.08,ENE,60,11.0,12.0,79,0.00,,---,0.20,VWS V14.00,2013-04-03 21:32:00,
2013-04-03 15:37:00,50.8,44.2,30.08,NE,38,7.0,16.0,78,0.00,,---,0.20,VWS V14.00,2013-04-03 21:37:00,
2013-04-03 15:42:00,50.8,44.2,30.09,NE,46,5.0,16.0,78,0.00,,---,0.20,VWS V14.00,2013-04-03 21:42:00,
2013-04-03 15:47:00,50.8,44.2,30.09,NNE,29,4.0,16.0,78,0.00,,---,0.20,VWS V14.00,2013-04-03 21:47:00,
2013-04-03 15:52:00,50.9,44.3,30.09,North,355,10.0,17.0,78,0.00,,---,0.20,VWS V14.00,2013-04-03 21:52:00,
2013-04-03 15:57:00,50.9,44.3,30.09,North,5,7.0,17.0,78,0.00,,---,0.20,VWS V14.00,2013-04-03 21:57:00,
2013-04-03 16:02:00,50.9,44.3,30.10,ENE,65,10.0,12.0,78,0.00,,---,0.20,VWS V14.00,2013-04-03 22:02:00,
2013-04-03 16:07:00,50.9,44.3,30.10,NNE,12,12.0,13.0,78,0.00,,---,0.20,VWS V14.00,2013-04-03 22:07:00,
2013-04-03 16:12:00,50.8,44.2,30.10,NNE,14,5.0,15.0,78,0.00,,---,0.20,VWS V14.00,2013-04-03 22:12:00,
2013-04-03 16:17:00,50.8,44.2,30.10,NE,48,7.0,15.0,78,0.00,,---,0.20,VWS V14.00,2013-04-03 22:17:00,
2013-04-03 16:22:00,50.6,43.7,30.09,NE,49,10.0,20.0,77,0.00,,---,0.20,VWS V14.00,2013-04-03 22:22:00,
2013-04-03 16:27:00,50.5,43.6,30.09,NNE,22,16.0,20.0,77,0.00,,---,0.20,VWS V14.00,2013-04-03 22:27:00,
2013-04-03 16:32:00,50.5,43.6,30.09,NNE,21,7.0,11.0,77,0.00,,---,0.20,VWS V14.00,2013-04-03 22:32:00,
2013-04-03 16:37:00,50.4,43.5,30.09,North,5,11.0,15.0,77,0.00,,---,0.20,VWS V14.00,2013-04-03 22:37:00,
2013-04-03 16:42:00,50.5,43.6,30.09,East,92,7.0,16.0,77,0.00,,---,0.20,VWS V14.00,2013-04-03 22:42:00,
2013-04-03 16:47:00,50.4,43.5,30.09,NNE,14,7.0,16.0,77,0.00,,---,0.20,VWS V14.00,2013-04-03 22:47:00,
2013-04-03 16:52:00,50.3,43.4,30.09,NNE,18,6.0,16.0,77,0.00,,---,0.20,VWS V14.00,2013-04-03 22:52:00,
2013-04-03 16:57:00,50.3,43.4,30.10,North,11,9.0,17.0,77,0.00,,---,0.20,VWS V14.00,2013-04-03 22:57:00,
2013-04-03 17:02:00,50.1,43.2,30.09,East,79,7.0,18.0,77,0.00,,---,0.20,VWS V14.00,2013-04-03 23:02:00,
2013-04-03 17:07:00,50.1,43.2,30.09,North,355,15.0,18.0,77,0.00,,---,0.20,VWS V14.00,2013-04-03 23:07:00,
2013-04-03 17:12:00,50.0,43.1,30.10,NNE,19,13.0,18.0,77,0.00,,---,0.20,VWS V14.00,2013-04-03 23:12:00,
2013-04-03 17:17:00,49.9,43.0,30.10,North,9,13.0,20.0,77,0.00,,---,0.20,VWS V14.00,2013-04-03 23:17:00,
2013-04-03 17:22:00,49.9,43.0,30.10,NNE,17,11.0,20.0,77,0.00,,---,0.20,VWS V14.00,2013-04-03 23:22:00,
2013-04-03 17:27:00,49.9,43.0,30.10,ESE,110,5.0,20.0,77,0.00,,---,0.20,VWS V14.00,2013-04-03 23:27:00,
2013-04-03 17:32:00,49.7,43.1,30.06,ENE,74,19.0,21.0,78,0.00,,---,0.20,VWS V14.00,2013-04-03 23:32:00,
2013-04-03 17:37:00,48.7,43.1,30.06,NE,43,16.0,23.0,81,0.92,,---,0.27,VWS V14.00,2013-04-03 23:37:00,
2013-04-03 17:42:00,47.8,43.2,30.06,ENE,71,22.0,24.0,84,0.35,,---,0.31,VWS V14.00,2013-04-03 23:42:00,
2013-04-03 17:47:00,47.5,43.2,30.06,NE,54,17.0,24.0,85,0.24,,---,0.33,VWS V14.00,2013-04-03 23:47:00,
2013-04-03 17:52:00,47.2,43.2,30.06,ENE,72,17.0,24.0,86,0.19,,---,0.34,VWS V14.00,2013-04-03 23:52:00,
2013-04-03 17:57:00,47.1,43.4,30.05,East,86,16.0,26.0,87,0.15,,---,0.36,VWS V14.00,2013-04-03 23:57:00,
2013-04-03 18:02:00,46.9,43.2,30.05,East,89,13.0,18.0,87,0.11,,---,0.36,VWS V14.00,2013-04-04 00:02:00,
2013-04-03 18:07:00,46.7,43.0,30.05,ENE,57,19.0,24.0,87,0.09,,---,0.37,VWS V14.00,2013-04-04 00:07:00,
2013-04-03 18:12:00,46.6,42.9,30.05,ENE,71,18.0,24.0,87,0.06,,---,0.37,VWS V14.00,2013-04-04 00:12:00,
2013-04-03 18:17:00,46.4,43.0,30.06,NE,56,14.0,24.0,88,0.04,,---,0.37,VWS V14.00,2013-04-04 00:17:00,
2013-04-03 18:22:00,46.3,43.0,30.06,ENE,78,16.0,24.0,88,0.00,,---,0.38,VWS V14.00,2013-04-04 00:22:00,
2013-04-03 18:27:00,46.2,43.1,30.09,NNW,333,2.0,24.0,89,0.00,,---,0.38,VWS V14.00,2013-04-04 00:27:00,
2013-04-03 18:32:00,46.3,43.2,30.11,West,272,4.0,7.0,89,0.06,,---,0.39,VWS V14.00,2013-04-04 00:32:00,
2013-04-03 18:37:00,46.2,43.1,30.12,West,279,6.0,11.0,89,0.06,,---,0.39,VWS V14.00,2013-04-04 00:37:00,
2013-04-03 18:42:00,46.2,43.4,30.11,NW,321,1.0,11.0,90,0.08,,---,0.40,VWS V14.00,2013-04-04 00:42:00,
2013-04-03 18:47:00,46.3,43.5,30.11,NNE,13,5.0,11.0,90,0.09,,---,0.41,VWS V14.00,2013-04-04 00:47:00,
2013-04-03 18:52:00,46.2,43.4,30.09,NE,35,7.0,13.0,90,0.13,,---,0.42,VWS V14.00,2013-04-04 00:52:00,
2013-04-03 18:57:00,46.1,43.3,30.08,NE,38,7.0,15.0,90,0.16,,---,0.43,VWS V14.00,2013-04-04 00:57:00,
2013-04-03 19:02:00,45.9,43.4,30.09,NE,47,10.0,16.0,91,0.16,,---,0.45,VWS V14.00,2013-04-04 01:02:00,
2013-04-03 19:07:00,45.8,43.3,30.10,NNW,348,9.0,16.0,91,0.12,,---,0.45,VWS V14.00,2013-04-04 01:07:00,
2013-04-03 19:12:00,45.9,43.4,30.10,North,355,9.0,16.0,91,0.08,,---,0.46,VWS V14.00,2013-04-04 01:12:00,
2013-04-03 19:17:00,46.0,43.5,30.12,NW,326,1.0,16.0,91,0.08,,---,0.46,VWS V14.00,2013-04-04 01:17:00,
2013-04-03 19:22:00,45.9,43.4,30.11,North,360,5.0,16.0,91,0.07,,---,0.47,VWS V14.00,2013-04-04 01:22:00,
2013-04-03 19:27:00,45.9,43.4,30.11,NNE,18,7.0,16.0,91,0.08,,---,0.48,VWS V14.00,2013-04-04 01:27:00,
2013-04-03 19:32:00,45.9,43.7,30.12,NW,310,5.0,6.0,92,0.14,,---,0.49,VWS V14.00,2013-04-04 01:32:00,
2013-04-03 19:37:00,45.9,43.7,30.12,NW,321,0.0,7.0,92,0.09,,---,0.50,VWS V14.00,2013-04-04 01:37:00,
2013-04-03 19:42:00,46.0,43.8,30.11,NNE,13,4.0,7.0,92,0.09,,---,0.50,VWS V14.00,2013-04-04 01:42:00,
2013-04-03 19:47:00,46.0,43.8,30.11,North,349,10.0,11.0,92,0.09,,---,0.51,VWS V14.00,2013-04-04 01:47:00,
2013-04-03 19:52:00,46.1,43.9,30.12,NNW,332,5.0,13.0,92,0.33,,---,0.54,VWS V14.00,2013-04-04 01:52:00,
2013-04-03 19:57:00,45.9,43.7,30.12,West,275,3.0,14.0,92,0.17,,---,0.55,VWS V14.00,2013-04-04 01:57:00,
2013-04-03 20:02:00,45.8,43.6,30.13,NNW,331,15.0,15.0,92,0.09,,---,0.55,VWS V14.00,2013-04-04 02:02:00,
2013-04-03 20:07:00,45.7,43.5,30.13,NNE,25,6.0,15.0,92,0.05,,---,0.55,VWS V14.00,2013-04-04 02:07:00,
2013-04-03 20:12:00,45.6,43.4,30.13,NE,42,6.0,15.0,92,0.04,,---,0.55,VWS V14.00,2013-04-04 02:12:00,
2013-04-03 20:17:00,45.5,43.3,30.14,North,355,8.0,15.0,92,0.00,,---,0.55,VWS V14.00,2013-04-04 02:17:00,
2013-04-03 20:22:00,45.5,43.3,30.14,NNE,13,5.0,15.0,92,0.00,,---,0.55,VWS V14.00,2013-04-04 02:22:00,
2013-04-03 20:27:00,45.4,43.2,30.15,NNE,22,7.0,15.0,92,0.00,,---,0.55,VWS V14.00,2013-04-04 02:27:00,
2013-04-03 20:32:00,45.4,43.2,30.15,NE,43,1.0,5.0,92,0.00,,---,0.55,VWS V14.00,2013-04-04 02:32:00,
2013-04-03 20:37:00,45.5,43.3,30.15,NE,55,5.0,11.0,92,0.00,,---,0.55,VWS V14.00,2013-04-04 02:37:00,
2013-04-03 20:42:00,45.5,43.3,30.15,NNE,29,6.0,11.0,92,0.00,,---,0.55,VWS V14.00,2013-04-04 02:42:00,
2013-04-03 20:47:00,45.6,43.4,30.16,NNE,30,2.0,11.0,92,0.00,,---,0.56,VWS V14.00,2013-04-04 02:47:00,
2013-04-03 20:52:00,45.7,43.5,30.15,NNE,30,0.0,11.0,92,0.00,,---,0.56,VWS V14.00,2013-04-04 02:52:00,
2013-04-03 20:57:00,45.8,43.6,30.15,NNE,19,5.0,11.0,92,0.00,,---,0.56,VWS V14.00,2013-04-04 02:57:00,
2013-04-03 21:02:00,45.8,43.6,30.16,NE,42,3.0,11.0,92,0.00,,---,0.56,VWS V14.00,2013-04-04 03:02:00,
2013-04-03 21:07:00,45.7,43.5,30.16,NE,37,1.0,11.0,92,0.00,,---,0.56,VWS V14.00,2013-04-04 03:07:00,
2013-04-03 21:12:00,45.6,43.4,30.17,NNE,33,1.0,11.0,92,0.00,,---,0.56,VWS V14.00,2013-04-04 03:12:00,
2013-04-03 21:17:00,45.5,43.3,30.17,NNE,32,2.0,11.0,92,0.00,,---,0.56,VWS V14.00,2013-04-04 03:17:00,
2013-04-03 21:22:00,45.5,43.3,30.17,NE,55,6.0,11.0,92,0.00,,---,0.56,VWS V14.00,2013-04-04 03:22:00,
2013-04-03 21:27:00,45.4,43.2,30.16,NE,39,4.0,11.0,92,0.00,,---,0.56,VWS V14.00,2013-04-04 03:27:00,
2013-04-03 21:32:00,45.4,43.2,30.17,NE,38,4.0,5.0,92,0.00,,---,0.56,VWS V14.00,2013-04-04 03:32:00,
2013-04-03 21:37:00,45.3,42.8,30.16,ENE,76,8.0,9.0,91,0.00,,---,0.57,VWS V14.00,2013-04-04 03:37:00,
2013-04-03 21:42:00,45.1,42.6,30.16,ENE,75,9.0,11.0,91,0.00,,---,0.57,VWS V14.00,2013-04-04 03:42:00,
2013-04-03 21:47:00,45.1,42.6,30.16,East,80,7.0,11.0,91,0.00,,---,0.57,VWS V14.00,2013-04-04 03:47:00,
2013-04-03 21:52:00,45.1,42.6,30.16,ENE,72,5.0,11.0,91,0.00,,---,0.57,VWS V14.00,2013-04-04 03:52:00,
2013-04-03 21:57:00,45.1,42.6,30.16,ENE,69,5.0,11.0,91,0.00,,---,0.57,VWS V14.00,2013-04-04 03:57:00,
2013-04-03 22:00:00,45.0,42.5,30.16,ENE,70,5.0,11.0,91,0.00,,---,0.57,VWS V14.00,2013-04-04 04:00:00,
2013-04-03 22:05:00,44.9,42.4,30.17,ENE,61,6.0,7.0,91,0.00,,---,0.57,VWS V14.00,2013-04-04 04:05:00,
2013-04-03 22:10:00,44.8,42.0,30.16,ENE,60,5.0,9.0,90,0.00,,---,0.58,VWS V14.00,2013-04-04 04:10:00,
2013-04-03 22:15:00,44.8,42.0,30.16,ENE,65,3.0,9.0,90,0.00,,---,0.58,VWS V14.00,2013-04-04 04:15:00,
2013-04-03 22:20:00,44.9,42.2,30.17,NE,42,3.0,9.0,90,0.00,,---,0.58,VWS V14.00,2013-04-04 04:20:00,
2013-04-03 22:25:00,44.8,42.0,30.17,NE,45,3.0,9.0,90,0.00,,---,0.58,VWS V14.00,2013-04-04 04:25:00,
2013-04-03 22:30:00,44.7,42.2,30.16,NE,45,3.0,9.0,91,0.00,,---,0.58,VWS V14.00,2013-04-04 04:30:00,
2013-04-03 22:35:00,44.7,42.2,30.17,NE,45,2.0,5.0,91,0.00,,---,0.58,VWS V14.00,2013-04-04 04:35:00,
2013-04-03 22:40:00,44.7,42.2,30.17,NE,45,1.0,5.0,91,0.00,,---,0.58,VWS V14.00,2013-04-04 04:40:00,
2013-04-03 22:45:00,44.8,42.3,30.17,NE,45,0.0,5.0,91,0.00,,---,0.58,VWS V14.00,2013-04-04 04:45:00,
2013-04-03 22:50:00,44.8,42.3,30.17,NE,45,0.0,5.0,91,0.00,,---,0.58,VWS V14.00,2013-04-04 04:50:00,
2013-04-03 22:55:00,44.8,42.3,30.17,NE,45,0.0,5.0,91,0.00,,---,0.58,VWS V14.00,2013-04-04 04:55:00,
2013-04-03 23:00:00,44.8,42.3,30.17,NE,45,0.0,5.0,91,0.00,,---,0.58,VWS V14.00,2013-04-04 05:00:00,
2013-04-03 23:05:00,44.8,42.3,30.17,NE,45,3.0,4.0,91,0.00,,---,0.00,VWS V14.00,2013-04-04 05:05:00,
2013-04-03 23:10:00,44.8,42.3,30.16,NE,45,4.0,4.0,91,0.00,,---,0.00,VWS V14.00,2013-04-04 05:10:00,
2013-04-03 23:15:00,44.7,42.2,30.16,NNE,32,3.0,7.0,91,0.00,,---,0.00,VWS V14.00,2013-04-04 05:15:00,
2013-04-03 23:20:00,44.7,42.2,30.16,NNE,27,2.0,7.0,91,0.00,,---,0.00,VWS V14.00,2013-04-04 05:20:00,
2013-04-03 23:25:00,44.7,42.2,30.17,NNE,26,0.0,7.0,91,0.00,,---,0.00,VWS V14.00,2013-04-04 05:25:00,
2013-04-03 23:30:00,44.8,42.6,30.16,NNE,26,3.0,7.0,92,0.00,,---,0.00,VWS V14.00,2013-04-04 05:30:00,
2013-04-03 23:35:00,44.8,42.3,30.16,NNE,22,0.0,4.0,91,0.00,,---,0.00,VWS V14.00,2013-04-04 05:35:00,
2013-04-03 23:40:00,44.6,42.1,30.17,NE,34,6.0,11.0,91,0.00,,---,0.01,VWS V14.00,2013-04-04 05:40:00,
2013-04-03 23:45:00,44.1,41.7,30.16,ENE,65,6.0,12.0,91,0.00,,---,0.01,VWS V14.00,2013-04-04 05:45:00,
2013-04-03 23:50:00,43.5,40.8,30.16,ENE,67,10.0,12.0,90,0.00,,---,0.01,VWS V14.00,2013-04-04 05:50:00,
2013-04-03 23:55:00,42.9,39.9,30.16,ENE,57,12.0,14.0,89,0.05,,---,0.02,VWS V14.00,2013-04-04 05:55:00,